TimeMST,TemperatureF,Dew PointF,Humidity,Sea Level PressureIn,VisibilityMPH,Wind Direction,Wind SpeedMPH,Gust SpeedMPH,PrecipitationIn,Events,Conditions,WindDirDegrees,DateUTC
12:51 AM,3.0,-0.9,84,30.26,-9999.0,Calm,Calm,-,N/A,,Unknown,0,2013-02-25 07:51:00
1:51 AM,-0.0,-2.9,88,30.25,-9999.0,SSE,4.6,-,N/A,,Unknown,150,2013-02-25 08:51:00
2:51 AM,-0.9,-4.0,87,30.23,-9999.0,SE,3.5,-,N/A,,Unknown,130,2013-02-25 09:51:00
3:51 AM,-2.0,-6.0,83,30.20,-9999.0,Variable,4.6,-,N/A,,Unknown,0,2013-02-25 10:51:00
4:51 AM,-0.0,-4.0,83,30.17,-9999.0,Calm,Calm,-,N/A,,Unknown,0,2013-02-25 11:51:00
5:51 AM,-2.9,-6.0,87,30.19,-9999.0,Calm,Calm,-,N/A,,Unknown,0,2013-02-25 12:51:00
6:51 AM,-2.0,-6.0,83,30.21,-9999.0,East,3.5,-,N/A,,Unknown,80,2013-02-25 13:51:00
7:51 AM,-0.0,-4.0,83,30.19,-9999.0,Calm,Calm,-,N/A,,Unknown,0,2013-02-25 14:51:00
8:51 AM,3.9,-0.9,80,30.16,-9999.0,SE,4.6,-,N/A,,Unknown,140,2013-02-25 15:51:00
9:51 AM,6.1,1.0,80,30.13,-9999.0,Calm,Calm,-,N/A,,Unknown,0,2013-02-25 16:51:00
10:51 AM,8.1,3.9,83,30.10,-9999.0,Calm,Calm,-,0.02,,Unknown,0,2013-02-25 17:51:00
11:51 AM,10.0,6.1,84,30.08,-9999.0,Calm,Calm,-,0.02,,Unknown,0,2013-02-25 18:51:00
12:51 PM,14.0,10.0,84,30.06,-9999.0,Calm,Calm,-,0.02,,Unknown,0,2013-02-25 19:51:00
1:51 PM,19.0,16.0,88,30.05,-9999.0,Calm,Calm,-,0.02,,Unknown,0,2013-02-25 20:51:00
2:51 PM,25.0,15.1,66,30.04,-9999.0,Calm,Calm,-,N/A,,Unknown,0,2013-02-25 21:51:00
3:51 PM,26.1,14.0,60,30.04,-9999.0,NNW,6.9,-,N/A,,Unknown,340,2013-02-25 22:51:00
4:51 PM,26.1,10.0,51,30.02,-9999.0,WNW,6.9,-,N/A,,Unknown,300,2013-02-25 23:51:00
5:51 PM,19.0,12.0,74,30.09,-9999.0,Calm,Calm,-,N/A,,Unknown,0,2013-02-26 00:51:00
6:51 PM,15.1,10.9,84,30.11,-9999.0,Calm,Calm,-,N/A,,Unknown,0,2013-02-26 01:51:00
7:51 PM,12.9,9.0,84,30.13,-9999.0,Calm,Calm,-,N/A,,Unknown,0,2013-02-26 02:51:00
8:51 PM,12.0,8.1,84,30.13,-9999.0,SSE,3.5,-,N/A,,Unknown,150,2013-02-26 03:51:00
9:51 PM,15.1,10.9,84,30.12,-9999.0,Calm,Calm,-,N/A,,Unknown,0,2013-02-26 04:51:00
10:51 PM,9.0,6.1,88,30.14,-9999.0,Calm,Calm,-,0.01,,Unknown,0,2013-02-26 05:51:00
11:51 PM,7.0,5.0,92,30.15,-9999.0,SSE,3.5,-,N/A,,Unknown,160,2013-02-26 06:51:00